铱星星座 176星 (IRIDIUM 176)

导读 | 星芒AI

IRIDIUM 176 是 IRIDIUM 卫星星座中的一颗通信卫星,属于美国 IRIDIUM 公司运营的第二代卫星网络(Iridium NEXT)。该卫星于2017年发射,运行在低地球轨道,提供全球范围的语音和数据通信服务。IRIDIUM 176 采用先进通信技术,支持抗干扰、高可靠性的连接,广泛应用于航空、航海、应急响应和远程地区通信。该星座由 66 颗卫星组成,IRIDIUM 176 在其中发挥关键作用,确保全球无缝覆盖和持续服务。

基本信息
目录编号:
43923
目录名称:
IRIDIUM 176
国际标识:
2019-002B
轨道中心:
EARTH
卫星名称:
铱星星座 176星
卫星全名:
铱星星座 176星 (IRIDIUM 176)
卫星状态:
在轨 (已飞行2528 天)
发射日期:
2019-01-11 UTC
国别 :
美国 (US)
星等 :
--
轨道信息
数据来源 国际轨道数据 AOE轨道数据
星历时间 2025-12-13T01:21:57+0800
16小时前
查看轨道信息
2025-12-07T13:00:00+0800
6天前
查看轨道信息
半长轴 7032.051km 7032.022km
偏心率 0.0002272 0.0002513
轨道倾角 86.609° 86.613°
近地点辐角 94.956° 84.969°
升交点赤经 71.519° 73.827°
平近点角 265.192° 223.010°
近地点 652.318km 652.119km
远地点 655.514km 655.655km
周期 97.810分钟 97.809分钟
每日圈数 14.72244 14.722531
详细信息
平衡模式:
三轴稳定
覆盖范围:
全球
运营商:
铱星通信公司
运营商所在国:
美国
制造商(研发单位):
阿莱尼亚宇航公司
制造商所在国:
意大利
使用方式:
暂无
卫星简介
铱星(Iridium)是由共66个运作中的通信卫星组成的卫星通信系统。这个系统原本规划77个通信卫星,所以用原子序数为77的铱元素来命名。铱卫星允许人们使用手持型电子设备进行全球性的语音及数据通讯。该卫星仍在工作。
2D轨道图
3D轨道图
轨道高度分析图
轨道倾角分析图
轨道综合分析图
查看轨道综合分析图